| time (UTC) | temp F | wind direction | speed MPH | gust MPH | rain 1hr in | rain 24hr in | rain mn in | humidity % | barometer mb |
| 20260503190106 | 79 | 118 | 2.0 | 6.0 | 0.00 | 0.00 | 0.00 | 44 | 1022.6 |
| 20260503184556 | 79 | 5 | 2.0 | 5.0 | 0.00 | 0.00 | 0.00 | 45 | 1022.7 |
| 20260503183101 | 79 | 195 | 1.0 | 4.0 | 0.00 | 0.00 | 0.00 | 44 | 1022.8 |
| 20260503181552 | 79 | 154 | 0.0 | 5.0 | 0.00 | 0.00 | 0.00 | 40 | 1023.2 |
| 20260503180057 | 79 | 153 | 0.0 | 6.0 | 0.00 | 0.00 | 0.00 | 40 | 1023.4 |
| 20260503174550 | 79 | 153 | 0.0 | 3.0 | 0.00 | 0.00 | 0.00 | 39 | 1023.6 |
| 20260503173108 | 79 | 155 | 1.0 | 7.0 | 0.00 | 0.00 | 0.00 | 39 | 1023.9 |
| 20260503171550 | 77 | 138 | 2.0 | 8.0 | 0.00 | 0.00 | 0.00 | 40 | 1023.9 |
| 20260503081512 | 62 | 22 | 0.0 | 0.0 | 0.00 | 0.00 | 0.00 | 84 | 1021.7 |
| 20260503071511 | 63 | 22 | 0.0 | 0.0 | 0.00 | 0.00 | 0.00 | 83 | 1021.6 |
| 20260503060103 | 65 | 22 | 0.0 | 0.0 | 0.00 | 0.00 | 0.00 | 81 | 1021.7 |
| 20260503054555 | 65 | 22 | 0.0 | 0.0 | 0.00 | 0.00 | 0.00 | 80 | 1021.6 |
| 20260503053052 | 66 | 22 | 0.0 | 0.0 | 0.00 | 0.00 | 0.00 | 80 | 1021.6 |
| 20260503051556 | 66 | 22 | 0.0 | 0.0 | 0.00 | 0.00 | 0.00 | 78 | 1021.4 |
| 20260503050047 | 66 | 22 | 0.0 | 0.0 | 0.00 | 0.00 | 0.00 | 76 | 1021.3 |
| 20260503044546 | 66 | 22 | 0.0 | 1.0 | 0.00 | 0.00 | 0.00 | 75 | 1021.1 |
| 20260503043050 | 67 | 22 | 0.0 | 1.0 | 0.00 | 0.00 | 0.00 | 76 | 1021.1 |
| 20260503041545 | 67 | 22 | 0.0 | 1.0 | 0.00 | 0.00 | 0.00 | 75 | 1021.2 |
| 20260503040044 | 67 | 22 | 0.0 | 1.0 | 0.00 | 0.00 | 0.00 | 75 | 1021.0 |
| 20260503034544 | 67 | 22 | 0.0 | 1.0 | 0.00 | 0.03 | 0.00 | 74 | 1020.9 |
| 20260503033046 | 67 | 22 | 0.0 | 1.0 | 0.00 | 0.03 | 0.00 | 76 | 1020.7 |
| 20260503031543 | 67 | 22 | 0.0 | 1.0 | 0.00 | 0.03 | 0.00 | 74 | 1020.7 |
| 20260503030043 | 68 | 22 | 0.0 | 1.0 | 0.00 | 0.03 | 0.00 | 72 | 1020.7 |
| 20260503024542 | 68 | 22 | 0.0 | 0.0 | 0.00 | 0.08 | 0.00 | 72 | 1020.7 |
| 20260503023042 | 69 | 22 | 0.0 | 0.0 | 0.00 | 0.08 | 0.00 | 69 | 1020.5 |
| 20260503021547 | 70 | 22 | 0.0 | 0.0 | 0.00 | 0.08 | 0.00 | 71 | 1020.4 |
| 20260503020049 | 71 | 22 | 0.0 | 0.0 | 0.00 | 0.08 | 0.00 | 68 | 1020.4 |
| 20260503014606 | 71 | 22 | 0.0 | 1.0 | 0.00 | 0.15 | 0.00 | 65 | 1020.0 |
| 20260503013041 | 71 | 22 | 0.0 | 3.0 | 0.00 | 0.15 | 0.00 | 57 | 1019.9 |
| 20260503011546 | 72 | 19 | 0.0 | 2.0 | 0.00 | 0.15 | 0.00 | 57 | 1019.8 |
| 20260503010048 | 73 | 19 | 0.0 | 4.0 | 0.00 | 0.15 | 0.00 | 54 | 1019.6 |
| 20260503004547 | 74 | 336 | 0.0 | 4.0 | 0.00 | 0.47 | 0.00 | 53 | 1019.4 |
| 20260503003037 | 74 | 11 | 0.0 | 6.0 | 0.00 | 0.47 | 0.00 | 51 | 1019.2 |
| 20260503001538 | 75 | 360 | 3.0 | 8.0 | 0.00 | 0.47 | 0.00 | 48 | 1019.2 |
| 20260503000041 | 76 | 5 | 2.0 | 9.0 | 0.00 | 0.47 | 0.00 | 47 | 1019.1 |
| 20260502234541 | 76 | 5 | 1.0 | 11.0 | 0.00 | 0.51 | 0.00 | 48 | 1019.0 |
| 20260502233035 | 76 | 26 | 1.0 | 10.0 | 0.00 | 0.51 | 0.00 | 48 | 1018.9 |
| 20260502231537 | 77 | 349 | 3.0 | 10.0 | 0.00 | 0.51 | 0.00 | 47 | 1018.8 |
| 20260502230033 | 77 | 313 | 1.0 | 8.0 | 0.00 | 0.51 | 0.00 | 47 | 1018.7 |
| 20260502224532 | 77 | 360 | 3.0 | 9.0 | 0.00 | 0.52 | 0.00 | 45 | 1018.6 |
| 20260502223037 | 77 | 302 | 2.0 | 7.0 | 0.00 | 0.52 | 0.00 | 47 | 1018.7 |
| 20260502221532 | 77 | 34 | 0.0 | 0.0 | 0.00 | 0.52 | 0.00 | 49 | 1018.7 |
| 20260502220030 | 76 | 335 | 2.0 | 11.0 | 0.00 | 0.52 | 0.00 | 46 | 1018.8 |
| 20260502214530 | 76 | 355 | 4.0 | 12.0 | 0.00 | 0.76 | 0.00 | 46 | 1018.9 |
| 20260502213028 | 76 | 84 | 5.0 | 13.0 | 0.00 | 0.76 | 0.00 | 46 | 1018.9 |
| 20260502211538 | 76 | 346 | 3.0 | 12.0 | 0.00 | 0.76 | 0.00 | 47 | 1018.8 |
| 20260502210033 | 75 | 22 | 2.0 | 13.0 | 0.00 | 0.76 | 0.00 | 49 | 1018.9 |
| 20260502204525 | 76 | 348 | 2.0 | 8.0 | 0.00 | 1.33 | 0.00 | 48 | 1019.0 |
| 20260502203024 | 75 | 42 | 3.0 | 12.0 | 0.00 | 1.33 | 0.00 | 47 | 1019.2 |
| 20260502201523 | 75 | 298 | 3.0 | 10.0 | 0.00 | 1.33 | 0.00 | 48 | 1019.4 |
| 20260502200024 | 75 | 360 | 2.0 | 11.0 | 0.00 | 1.33 | 0.00 | 49 | 1019.5 |
| 20260502194519 | 74 | 30 | 4.0 | 13.0 | 0.00 | 2.10 | 0.00 | 48 | 1019.5 |
| 20260502193018 | 74 | 5 | 6.0 | 16.0 | 0.00 | 2.10 | 0.00 | 51 | 1019.8 |
| 20260502191515 | 74 | 271 | 4.0 | 12.0 | 0.00 | 2.10 | 0.00 | 51 | 1020.1 |